This demonstration page uses our WeatherBlox Daily Observations layout. Learn more.

Left ArrowRight Arrow

Hourly Observations for August 20, 2022

Temp ( °F °C ) Dew Point ( °F °C ) Humidity (%) Winds ( mph kmh ) Pressure ( in mb ) Visibility ( mi km ) Precip ( " mm )
12:51 am 00:51 Mostly Cloudy with Light Rain 68 20 68 20 100 100 NNW 3 6 29.79 1009 10 16 0.05 1.27
1:51 am 01:51 Mostly Clear with Light Rain 69 20.6 69 20.6 100 100 Calm 29.79 1009 10 16 0.02 0.51
2:42 am 02:42 Mostly Cloudy 68 20 68 20 100 100 Calm 29.79 1009 10 16 0.01 0.25
2:51 am 02:51 Mostly Cloudy 68 20 68 20 100 100 Calm 29.79 1009 10 16 0.01 0.25
3:10 am 03:10 Mostly Cloudy 68 20 68 20 100 100 NW 3 6 29.79 1009 10 16 0.00 0.00
3:23 am 03:23 Mostly Cloudy 69 20.6 69 20.6 100 100 NW 3 6 29.78 1009 10 16 0.00 0.00
3:51 am 03:51 Cloudy 69 20.6 69 20.6 100 100 NNW 3 6 29.79 1009 10 16 0.00 0.00
4:36 am 04:36 Cloudy with Light Rain 69 20.6 69 20.6 100 100 NNW 3 6 29.79 1009 10 16 0.01 0.13
4:51 am 04:51 Cloudy 69 20.6 69 20.6 100 100 NNW 5 7 29.79 1009 10 16 0.01 0.13
5:12 am 05:12 Cloudy 69 20.6 69 20.6 100 100 NW 7 11 29.80 1009 10 16 0.00 0.00
5:19 am 05:19 Cloudy with Light Rain 68 20 68 20 100 100 NNW 6 9 29.81 1009 10 16 0.01 0.13
5:29 am 05:29 Cloudy with Heavy Rain 68 20 68 20 100 100 NNE 6 9 29.81 1009 3 4 0.05 1.27
5:35 am 05:35 Cloudy with Heavy Rain 68 20 68 20 100 100 NNE 3 6 29.81 1009 3 5 0.12 3.05
5:51 am 05:51 Cloudy with Light Rain 68 20 68 20 100 100 NW 3 6 29.83 1010 10 16 0.18 4.57
6:51 am 06:51 Mostly Cloudy with Light Rain 69 20.6 69 20.6 100 100 WNW 3 6 29.84 1011 10 16 0.01 0.13
7:39 am 07:39 Cloudy with Light Rain 69 20.6 69 20.6 100 100 WNW 5 7 29.84 1011 10 16 0.04 1.02
7:51 am 07:51 Cloudy 69 20.6 69 20.6 100 100 WNW 3 6 29.85 1011 10 16 0.04 1.02
8:22 am 08:22 Cloudy 70 21.1 70 21.1 100 100 W 3 6 29.85 1011 10 16 0.00 0.00
8:38 am 08:38 Cloudy with Light Rain 70 21.1 70 21.1 100 100 W 3 6 29.85 1011 10 16 0.01 0.13
8:51 am 08:51 Mostly Cloudy with Light Rain 69 20.6 69 20.6 100 100 W 3 6 29.87 1012 10 16 0.01 0.13
9:51 am 09:51 Mostly Cloudy with Light Rain 70 21.1 70 21.1 100 100 Calm 29.89 1012 10 16 0.03 0.76
10:51 am 10:51 Cloudy with Light Rain 70 21.1 70 21.1 100 100 Calm 29.89 1012 10 16 0.07 1.78
11:25 am 11:25 Cloudy with Light Rain 71 21.7 70 21.1 96 96 Calm 29.86 1011 10 16 0.01 0.25
11:51 am 11:51 Cloudy 72 22.2 69 20.6 91 91 Calm 29.88 1012 10 16 0.01 0.25
12:51 pm 12:51 Mostly Cloudy 73 22.8 71 21.7 94 94 SSW 3 6 29.87 1012 10 16 0.01 0.13
1:08 pm 13:08 Cloudy 73 22.8 70 21.1 90 90 Calm 29.83 1010 10 16 0.00 0.00
1:24 pm 13:24 Cloudy 74 23.3 70 21.1 87 87 SW 3 6 29.82 1010 10 16 0.00 0.00
1:51 pm 13:51 Partly Cloudy 75 23.9 70 21.1 84 84 Calm 29.85 1011 10 16 0.00 0.00
2:51 pm 14:51 Partly Cloudy 77 25 70 21.1 79 79 VRB 5 7 29.83 1010 10 16 0.00 0.00
3:51 pm 15:51 Sunny 77 25 70 21.1 79 79 WNW 3 6 29.82 1010 10 16 0.00 0.00
4:51 pm 16:51 Sunny 77 25 70 21.1 79 79 SW 5 7 29.82 1010 10 16 0.00 0.00
5:51 pm 17:51 Sunny 77 25 69 20.6 77 77 W 3 6 29.82 1010 10 16 0.00 0.00
6:51 pm 18:51 Sunny 76 24.4 70 21.1 82 82 S 3 6 29.82 1010 10 16 0.00 0.00
7:51 pm 19:51 Mostly Clear 75 23.9 72 22.2 90 90 SE 3 6 29.85 1011 10 16 0.00 0.00
8:51 pm 20:51 Partly Cloudy 74 23.3 72 22.2 94 94 E 6 9 29.88 1012 10 16 0.00 0.00
9:51 pm 21:51 Cloudy 74 23.3 70 21.1 87 87 E 8 13 29.89 1012 10 16 0.00 0.00
10:51 pm 22:51 Cloudy 73 22.8 69 20.6 87 87 E 8 13 29.89 1012 10 16 0.00 0.00
11:51 pm 23:51 Mostly Cloudy 75 23.9 70 21.1 84 84 NW 5 7 29.91 1013 10 16 0.00 0.00

Powered by AerisWeather